User: anonymous   Login
Location: Beuerbach
(48.1459°N, 10.9174°E)
Time: 11:09:59
(UTC+00:00)
Language:

Cosmos 1954 Rocket - Orbit

View from above orbital plane
View from above orbital plane
View from above satellite
View from above satellite

Ground track
Ground track

The orbit data is extracted from the following two-line orbital elements,

1 19257U 88053B   24205.94735104  .00000753  00000-0  25595-3 0  9998
2 19257  74.0481 126.3854 0019087  95.4317 337.6652 14.38234722891212
Epoch (UTC): 23 July 2024 22:44:11
Eccentricity: 0.0019087
inclination: 74.0481°
perigee height: 751 km
apogee height: 778 km
right ascension of ascending node: 126.3854°
argument of perigee: 95.4317°
revolutions per day: 14.38234722
mean anomaly at epoch: 337.6652°
orbit number at epoch: 89121

The dashed part of the orbit path shows where the satellite is in the earth's shadow,  

DLR